Location: Roland
(31.1349°N, 85.4372°W)
Time: 21:29:47
(UTC+00:00)

Tiros 1 - Pass Details

Date: 21 April 2021
Orbit: 630 x 664 km, 48.4° (Epoch: 05 May)

Event Time Altitude Azimuth Distance (km) Brightness Sun altitude
Rises 14:59:22 0° 268° (W) 2,937 10.2 48.3°
Reaches altitude 10° 15:02:14 10° 285° (WNW) 2,023 9.4 48.9°
Maximum altitude 15:05:42 20° 334° (NNW) 1,449 8.9 49.6°
Drops below altitude 10° 15:09:11 10° 22° (NNE) 2,014 9.8 50.3°
Sets 15:12:01 0° 39° (NE) 2,919 10.7 50.9°
